Theta_e
321 320 320 320 320 319 319 319 319 318 318 318 318 318 318 318 317 318 317 317 317 316 317 318 320 322 317 310 312 333 349 345 318 312 309 317 319 323 323 327 328 324 326 328 329 327 329
322 322 322 321 320 320 319 319 319 318 318 317 317 317 317 317 317 317 317 316 316 316 318 318 320 323 316 309 327 334 331 321 315 312 309 319 319 328 330 328 326 327 327 326 327 327 329
323 322 322 321 320 319 319 319 319 319 319 317 317 317 317 317 316 316 316 315 315 316 318 319 321 321 311 314 329 325 318 315 313 312 309 317 321 322 333 326 330 328 322 325 326 326 326
323 323 322 322 321 321 320 319 319 319 319 318 318 317 316 316 316 315 315 314 315 317 319 320 322 319 308 319 327 318 313 309 311 312 316 319 326 334 331 332 327 323 323 316 324 326 327
323 323 323 322 322 321 321 320 319 319 319 319 318 317 316 316 315 314 314 315 320 319 322 323 319 316 312 325 319 322 316 312 309 312 312 315 327 330 329 322 318 319 313 315 318 327 324
324 323 323 323 322 321 320 320 319 319 319 318 318 317 316 315 314 313 312 315 324 324 323 322 320 312 315 314 313 317 319 314 312 310 308 308 324 323 323 318 309 311 311 314 315 322 323
324 324 323 323 322 321 321 320 320 319 319 318 318 317 315 314 313 312 311 316 313 312 318 312 312 312 314 317 317 313 316 314 309 307 303 304 315 314 318 318 318 316 313 310 317 324 321
324 324 323 323 322 321 320 320 319 319 318 318 317 316 315 313 312 311 310 312 313 313 308 312 314 314 316 318 310 311 314 308 306 302 303 303 303 310 318 321 317 316 312 309 318 324 322
323 323 322 322 322 321 321 319 319 318 318 317 316 316 315 313 312 310 310 311 315 314 309 310 313 314 315 317 311 310 312 307 304 301 301 302 305 304 303 305 308 309 307 309 309 321 323
323 322 322 322 322 321 321 319 319 318 317 317 316 315 314 311 309 309 312 316 314 313 307 307 310 314 316 316 309 313 313 310 304 302 301 302 304 302 301 302 304 301 306 311 317 315 310
322 322 322 322 321 321 320 319 318 318 317 316 316 315 312 309 307 308 314 314 312 313 295 308 309 316 311 310 310 309 312 310 304 304 305 303 304 302 301 303 305 304 313 315 317 314 314
322 322 322 322 321 321 320 318 318 317 316 315 315 313 311 308 308 310 314 312 314 305 295 306 309 307 307 309 308 309 309 312 309 305 306 306 308 306 307 306 307 320 318 317 316 315 305
323 322 322 321 321 320 319 319 318 317 315 314 312 310 309 311 308 312 312 315 303 299 308 305 305 306 306 305 307 307 306 305 303 300 301 303 305 307 307 308 315 314 311 302 301 302 299
323 322 321 321 320 319 319 319 317 316 315 313 310 308 310 312 313 311 314 309 297 304 305 310 305 304 304 306 305 305 304 303 304 303 302 300 297 304 306 306 306 310 308 299 292 295 298
322 322 321 321 320 319 319 319 317 316 314 312 309 311 312 314 313 312 312 299 300 304 309 305 304 302 302 304 305 304 304 304 306 306 302 300 300 305 306 305 307 303 303 305 299 299 298
320 320 320 320 320 319 319 319 318 315 313 311 309 308 312 313 314 313 308 297 301 307 308 306 301 304 302 303 303 303 303 306 305 306 308 304 300 305 307 307 308 304 304 299 302 293 292
318 318 319 319 320 319 320 319 317 315 312 310 308 305 310 312 308 310 301 302 304 309 309 305 303 303 304 305 304 303 304 307 308 304 306 304 302 304 310 308 306 305 305 303 304 302 295
317 317 317 318 319 319 320 319 316 312 310 309 306 305 310 311 304 302 302 304 303 308 310 307 307 306 304 306 305 305 306 308 309 308 304 305 307 304 305 310 310 310 308 307 301 300 303
317 318 317 316 317 318 319 319 315 311 310 309 304 303 312 310 298 301 303 304 307 306 306 306 306 306 306 306 305 307 308 310 309 310 308 308 305 301 303 307 309 307 307 307 307 308 304
315 316 317 318 317 318 319 318 314 311 311 310 305 301 311 309 306 304 304 303 304 310 309 309 308 306 304 303 305 307 308 308 310 311 317 312 304 303 298 302 307 304 306 307 306 302 303
314 315 315 316 316 317 319 318 315 312 311 310 307 302 306 304 306 305 306 305 304 303 309 310 306 309 306 302 303 304 307 308 310 316 310 311 305 304 304 304 306 305 305 306 305 306 302
313 315 316 315 316 319 319 318 315 313 310 312 306 305 307 303 303 305 301 304 303 304 306 307 306 308 309 303 306 305 307 308 308 310 309 309 306 307 304 307 307 305 307 307 307 307 306
314 315 315 317 318 319 320 318 315 313 309 308 309 310 308 300 302 301 302 304 304 304 307 308 308 305 306 309 309 310 309 308 312 310 308 310 307 306 299 305 305 301 306 307 308 310 309
314 315 316 317 318 319 320 317 315 314 311 311 310 309 306 300 303 303 304 305 303 303 303 306 306 304 311 313 308 307 307 307 307 303 309 308 308 306 301 304 294 304 309 310 308 310 313
315 316 317 318 319 319 320 317 315 315 312 312 310 309 308 302 305 304 304 304 305 305 302 303 306 311 316 313 304 303 303 304 305 305 303 310 308 302 300 299 302 304 308 309 309 308 314
316 317 317 318 319 319 320 317 315 315 313 313 310 311 310 304 303 306 305 306 302 302 303 307 313 315 313 306 302 301 297 302 300 303 306 307 310 304 301 296 293 304 310 315 315 305 314
316 317 317 318 319 320 318 317 315 315 314 313 310 312 310 304 308 309 304 303 307 305 302 303 307 307 309 303 300 300 299 304 300 301 303 303 304 301 301 299 303 309 314 317 304 305 316
316 316 317 318 319 318 317 315 314 314 314 312 310 312 310 306 307 310 312 308 307 306 302 306 304 309 309 302 301 302 301 302 303 305 305 305 303 302 301 299 295 313 315 309 315 319 318
316 317 316 315 315 315 314 314 314 314 314 312 306 312 314 306 306 311 312 314 313 312 308 308 306 305 306 305 304 302 301 303 305 300 305 302 307 305 306 304 313 318 317 320 319 317 321
Wind_Speed
17 17 16 17 16 16 16 16 16 16 15 15 14 14 14 13 14 14 13 13 13 12 12 10 9 8 3 2 2 4 9 11 7 5 5 5 4 3 3 4 4 5 4 5 11 8 1
16 16 17 17 17 17 16 16 16 15 15 16 15 15 15 15 14 14 14 14 13 12 11 8 8 8 3 3 2 4 9 7 4 4 4 4 1 5 8 4 5 4 7 11 6 4 4
16 17 17 17 18 18 17 17 17 16 16 17 17 16 16 16 15 15 15 15 15 13 9 6 6 3 2 3 2 6 5 3 3 2 3 2 1 1 5 9 9 11 11 7 4 4 2
16 16 17 16 16 16 17 17 17 17 17 17 18 18 17 16 15 16 16 16 14 10 6 4 3 2 3 2 5 5 3 2 2 2 1 1 4 8 3 11 3 4 3 4 3 7 4
15 15 16 16 17 16 16 17 17 17 16 16 17 19 18 16 16 16 16 17 11 4 3 5 2 3 1 3 3 3 4 1 5 3 2 1 2 5 6 6 4 3 3 1 4 8 4
15 15 16 16 17 18 17 17 17 17 17 17 17 18 18 16 14 14 16 11 8 6 2 3 3 3 1 1 2 5 3 3 2 5 4 2 3 4 4 5 2 3 2 2 3 8 6
15 15 16 16 17 18 17 17 18 18 18 18 18 17 19 17 15 13 7 2 2 3 2 3 1 2 2 2 2 3 3 5 2 3 3 3 4 6 10 5 5 5 2 1 2 5 8
15 15 15 16 16 18 20 18 18 19 20 19 19 18 18 18 16 8 3 1 4 3 5 3 5 5 5 2 3 3 5 2 1 4 2 4 4 3 4 7 5 6 6 3 1 5 9
15 15 15 15 16 17 19 20 19 20 20 20 19 19 17 19 14 3 2 1 4 1 3 3 4 3 3 7 4 7 7 3 3 4 3 4 1 2 4 5 8 9 9 5 1 6 5
14 15 15 16 16 17 18 21 21 21 21 21 20 19 17 21 2 2 2 2 5 4 1 2 3 3 5 3 4 2 5 3 2 6 4 3 1 3 3 7 9 12 5 7 12 7 0
14 15 15 16 17 17 18 22 22 21 22 22 21 19 14 8 4 3 4 5 5 4 2 3 4 5 3 4 6 3 1 3 5 6 5 3 7 6 7 10 9 3 3 9 11 4 3
14 15 15 16 16 17 18 22 23 23 23 24 24 20 14 2 2 4 5 1 3 3 3 3 5 5 6 1 3 4 3 2 2 4 3 5 0 4 4 3 8 13 12 8 4 1 4
14 14 15 15 16 17 17 21 25 24 25 25 25 21 4 2 0 5 5 2 3 3 2 4 3 4 4 4 5 5 8 9 5 4 6 2 4 2 3 6 7 5 6 2 5 5 4
14 13 14 15 15 16 17 20 22 24 25 27 28 14 5 4 3 6 2 2 5 1 4 1 0 4 5 9 4 6 6 6 4 4 2 4 7 3 3 6 5 9 6 4 7 7 6
13 14 14 15 15 15 17 16 24 23 27 28 23 2 2 2 5 3 2 3 4 5 1 1 0 4 4 5 3 6 8 5 7 14 6 5 3 2 3 1 2 7 6 2 4 1 4
14 15 15 15 16 14 15 15 20 21 26 27 7 4 4 6 4 2 3 4 4 3 3 1 4 5 5 5 8 9 8 4 4 10 3 3 3 2 3 1 8 3 8 4 2 6 8
16 15 15 15 15 15 15 15 18 20 24 24 2 3 5 3 2 1 4 5 5 5 4 3 3 3 3 4 7 5 6 2 5 6 3 5 3 4 4 4 1 4 4 5 3 2 6
15 15 15 14 14 15 15 14 14 18 23 6 4 2 3 2 1 1 3 4 2 3 3 5 3 4 4 6 6 6 9 4 7 11 9 1 3 1 2 3 1 1 1 3 5 5 1
15 16 15 16 13 15 14 12 11 12 12 5 4 3 2 3 2 2 2 3 4 2 2 2 3 5 3 5 4 5 5 1 8 8 9 8 1 4 3 5 3 3 3 2 3 1 6
15 15 17 17 15 15 14 10 10 11 10 2 3 3 2 3 1 2 3 1 3 3 4 4 4 1 3 4 2 6 7 2 4 3 7 6 4 4 5 1 2 4 4 3 3 4 2
17 17 17 17 18 16 13 10 10 10 10 2 2 2 2 3 2 3 2 2 5 5 2 3 2 5 4 3 3 3 3 5 3 9 4 4 5 5 3 1 3 2 4 6 7 4 7
17 16 15 15 16 14 13 8 8 10 8 1 4 3 1 2 4 3 1 2 2 3 3 3 0 7 7 4 6 8 8 5 6 5 3 1 5 4 4 2 1 5 6 7 9 8 12
16 15 16 15 15 13 12 4 7 10 5 2 1 0 3 1 2 3 0 1 2 6 5 8 6 8 8 6 12 12 3 3 4 9 6 5 7 6 5 2 2 8 13 13 9 9 8
15 14 15 14 13 12 11 1 3 5 5 1 1 2 2 2 3 3 4 5 9 6 7 10 14 6 1 8 5 8 10 9 9 8 2 7 6 1 1 5 7 5 2 4 10 10 10
16 14 13 13 13 11 7 2 1 2 3 1 1 1 2 3 4 8 5 5 7 6 7 11 14 12 9 7 3 4 3 4 5 8 4 1 5 4 4 6 5 8 5 7 7 9 4
15 15 13 13 11 9 6 4 2 1 2 1 0 1 2 3 3 4 3 2 4 6 5 5 7 9 5 3 3 5 6 6 5 4 4 6 4 4 4 5 8 3 2 4 4 8 2
17 15 13 12 9 8 5 4 2 2 2 1 1 4 2 3 4 4 5 4 1 1 4 5 7 6 2 3 5 5 4 3 8 10 6 5 3 6 4 5 5 3 2 6 6 3 3
17 14 11 10 5 3 4 3 2 2 2 1 1 4 2 3 9 8 7 7 6 5 5 5 6 2 3 5 5 3 3 5 5 4 6 8 8 4 3 4 6 7 6 5 3 2 3
13 8 4 3 3 3 3 3 1 1 1 2 1 0 2 4 6 5 12 15 15 13 6 4 1 5 3 4 2 3 2 4 5 5 1 5 3 3 8 2 3 8 1 1 2 3 1
Wind_Direction
26 22 19 15 11 10 7 5 3 4 359 354 348 343 337 333 329 325 323 320 318 319 320 317 311 317 272 208 272 21 124 135 131 156 185 177 169 174 100 105 100 78 117 76 120 148 289
17 11 9 10 11 8 4 1 358 356 356 353 348 342 337 332 329 324 321 316 312 311 313 312 306 315 251 143 55 113 122 133 158 178 174 198 107 103 107 71 52 112 119 111 128 116 21
12 11 10 9 10 8 1 356 352 350 348 351 346 341 337 333 330 325 320 315 309 303 298 298 303 300 258 85 77 134 132 153 176 171 167 213 103 207 116 108 124 122 111 117 116 104 120
5 5 3 360 1 358 355 352 349 346 343 340 344 342 337 334 329 324 321 316 305 287 269 241 261 259 255 102 120 155 182 125 130 225 306 30 92 94 67 122 102 109 127 163 130 175 147
2 1 360 358 357 353 350 347 344 340 337 335 332 341 338 334 329 326 322 318 305 212 182 175 210 305 109 132 228 177 187 147 132 178 299 107 68 81 137 137 111 29 95 131 157 196 148
357 357 356 353 353 352 349 345 342 339 337 335 333 341 340 335 330 328 322 318 110 130 160 203 247 210 228 25 155 130 187 154 101 130 142 130 99 115 144 210 93 135 146 207 243 191 210
352 352 351 349 347 347 347 343 340 338 336 335 334 336 342 337 329 324 317 199 216 163 182 254 335 293 304 347 204 129 161 148 125 90 156 47 205 194 202 183 101 119 142 265 246 175 199
345 344 343 344 343 346 345 340 338 336 334 334 333 331 336 336 328 320 204 229 100 46 307 230 246 271 269 273 139 106 165 142 72 129 143 162 236 237 131 189 234 264 286 281 83 168 209
339 339 338 339 340 341 342 342 336 334 332 332 332 330 331 333 327 197 282 176 106 32 265 293 201 207 191 178 178 179 175 120 120 141 185 212 53 94 198 215 233 247 252 194 290 154 207
335 335 336 336 338 339 336 341 339 334 331 330 331 331 333 331 249 317 225 102 320 198 340 153 215 163 138 190 166 171 173 142 151 193 167 251 152 224 235 243 221 272 269 189 147 169 111
330 331 332 334 336 335 335 340 339 334 330 328 328 331 332 333 316 227 108 326 138 199 135 135 145 124 142 203 138 140 171 139 173 164 193 183 178 185 221 238 188 310 156 156 158 145 187
327 328 330 331 333 333 335 339 338 334 330 327 325 328 327 153 218 268 315 311 228 247 157 160 137 168 156 123 113 120 162 73 69 182 236 265 228 215 232 85 170 133 108 100 90 118 237
323 325 326 327 329 331 335 340 338 334 329 327 325 324 282 217 349 334 306 167 251 222 17 174 183 175 186 158 174 173 177 191 211 203 223 210 212 228 204 120 139 188 186 199 218 209 284
320 321 323 324 326 329 336 340 338 333 330 327 326 323 187 243 310 336 220 133 239 207 217 355 171 143 206 169 187 167 168 205 196 177 267 229 185 186 154 231 203 200 244 239 260 235 260
320 322 324 323 322 328 330 331 340 335 330 329 319 333 260 288 245 275 166 188 250 208 183 295 63 197 189 192 185 178 205 216 206 191 217 180 133 59 2 121 229 154 205 21 154 97 249
329 327 324 324 317 323 326 325 338 337 332 332 324 321 355 343 174 238 167 235 254 236 296 171 218 214 203 179 184 195 182 179 213 189 220 172 192 74 119 174 67 247 126 174 178 229 246
328 327 323 321 320 328 331 333 335 343 336 327 316 342 8 60 253 66 205 227 264 249 246 235 214 206 224 187 201 189 183 189 191 144 153 160 258 123 194 37 28 153 180 69 111 282 269
326 325 324 320 324 331 326 328 337 345 339 35 338 320 19 283 147 4 202 210 268 268 217 264 261 233 219 174 175 204 202 247 149 148 171 101 103 76 77 117 63 296 27 239 250 184 247
330 327 323 328 330 329 326 329 340 347 6 320 350 295 325 288 214 212 282 267 266 271 269 278 257 222 183 194 192 202 203 166 161 165 159 173 91 152 178 174 163 234 116 109 114 195 199
330 331 330 331 332 328 323 334 341 347 357 328 315 335 356 53 47 14 3 300 282 290 265 271 277 309 226 190 230 186 173 128 169 107 85 120 135 214 260 88 98 185 185 176 251 252 214
329 329 329 326 327 325 323 330 341 343 351 295 342 66 45 360 77 359 292 320 294 304 300 278 155 40 300 178 167 228 166 146 110 151 103 208 163 192 193 166 198 224 201 196 228 242 248
325 323 322 318 319 318 319 324 347 345 340 310 336 341 31 301 297 281 188 187 262 328 288 305 327 354 329 244 191 213 186 208 174 181 134 116 144 172 187 167 197 262 255 247 249 249 252
323 319 321 312 313 316 317 321 352 355 346 5 41 267 289 27 316 278 247 334 123 0 263 275 322 341 310 322 298 278 242 88 205 168 151 158 147 181 233 179 234 256 248 232 233 229 241
317 313 309 307 307 308 313 279 355 24 44 43 47 307 275 275 263 264 303 312 294 300 277 289 304 270 297 340 321 124 103 103 92 68 101 136 124 164 214 161 235 279 267 271 239 264 246
312 312 308 303 302 298 300 201 291 33 96 60 93 275 268 273 279 278 275 279 297 293 267 267 277 264 324 303 266 162 149 151 78 46 70 102 142 132 222 227 311 265 205 205 211 278 267
313 313 306 303 297 289 258 177 202 264 115 101 207 237 252 283 241 277 299 293 302 297 286 266 322 319 254 235 195 213 174 159 167 122 65 92 86 223 162 235 261 304 144 166 152 272 62
310 308 302 309 297 284 184 176 196 221 141 220 296 205 236 255 274 245 248 278 228 268 289 294 342 328 335 214 211 209 177 175 156 170 164 148 133 214 194 245 272 235 154 155 227 0 349
308 300 299 298 323 151 137 146 190 152 129 214 306 203 258 256 275 247 245 249 246 255 267 345 320 135 288 242 210 207 176 178 142 138 178 180 172 178 151 217 279 164 141 229 36 22 308
318 315 356 30 64 99 120 125 89 36 99 129 300 117 191 244 279 300 273 262 250 253 273 203 282 328 283 270 240 260 163 164 152 181 110 198 223 186 210 193 96 184 232 173 304 305 119